Menu Close Menu
Station Historical Data
Daily Summary for October 25, 2017 Units:  English    Metric   Both
« Previous Day
Next Day »
Daily Weekly Monthly Yearly Custom
  High: Low: Average:
Temperature: 60.0 °F 40.1 °F 48.1 °F
Dew Point: 42.3 °F 33.0 °F 38.5 °F
Humidity: 92% 45% 72%
Wind Speed: 5.1mph 0.0mph 0.5mph
Wind Gust: 6.0mph - -
Wind- - West
Pressure: 30.04 in 29.92 in -
Precipitation: 0.00 in    
Historical Graphs
 
 
Tabular Data for October 25, 2017
Time Temperature Dew Point Pressure Wind Wind Speed Wind Gust Humidity Rainfall Rate (Hourly) solar Conditions
00:04 47.2 °F 41.7 °F 30.02 in Calm     81% 0.00 in WeatherDisplay:10.37 W/m2 BKN
00:09 47.1 °F 41.6 °F 30.02 in Calm     81% 0.00 in WeatherDisplay:10.37 W/m2 BKN
00:15 47.1 °F 41.6 °F 30.02 in Calm     81% 0.00 in WeatherDisplay:10.37 W/m2 BKN
00:20 47.1 °F 41.2 °F 30.02 in Calm     80% 0.00 in WeatherDisplay:10.37 W/m2 BKN
00:25 47.1 °F 41.2 °F 30.02 in Calm     80% 0.00 in WeatherDisplay:10.37 W/m2 BKN
00:30 47.0 °F 41.2 °F 30.02 in Calm     80% 0.00 in WeatherDisplay:10.37 W/m2 BKN
00:35 46.9 °F 41.1 °F 30.02 in Calm     80% 0.00 in WeatherDisplay:10.37 W/m2 BKN
00:40 46.8 °F 41.0 °F 30.02 in Calm     80% 0.00 in WeatherDisplay:10.37 W/m2 BKN
00:45 46.8 °F 41.3 °F 30.02 in Calm     81% 0.00 in WeatherDisplay:10.37 W/m2 BKN
00:50 46.7 °F 41.2 °F 30.02 in Calm     81% 0.00 in WeatherDisplay:10.37 W/m2 BKN
00:55 46.5 °F 41.0 °F 30.02 in Calm     81% 0.00 in WeatherDisplay:10.37 W/m2 BKN
01:00 46.4 °F 40.9 °F 30.02 in Calm     81% 0.00 in WeatherDisplay:10.37 W/m2 BKN
01:05 46.2 °F 41.0 °F 30.02 in Calm     82% 0.00 in WeatherDisplay:10.37 W/m2 CLR
01:10 46.0 °F 40.5 °F 30.02 in Calm     81% 0.00 in WeatherDisplay:10.37 W/m2 CLR
01:15 46.0 °F 41.1 °F 30.02 in Calm     83% 0.00 in WeatherDisplay:10.37 W/m2 CLR
01:20 45.9 °F 41.0 °F 30.02 in Calm     83% 0.00 in WeatherDisplay:10.37 W/m2 CLR
01:25 45.7 °F 40.8 °F 30.02 in Calm     83% 0.00 in WeatherDisplay:10.37 W/m2 CLR
01:30 45.6 °F 41.0 °F 30.02 in Calm     84% 0.00 in WeatherDisplay:10.37 W/m2 CLR
01:35 45.5 °F 40.9 °F 30.02 in Calm   1.0 mph 84% 0.00 in WeatherDisplay:10.37 W/m2 CLR
01:40 45.3 °F 40.8 °F 30.02 in Calm     84% 0.00 in WeatherDisplay:10.37 W/m2 CLR
01:45 45.3 °F 41.0 °F 30.02 in Calm     85% 0.00 in WeatherDisplay:10.37 W/m2 CLR
01:50 45.1 °F 40.6 °F 30.02 in Calm     84% 0.00 in WeatherDisplay:10.37 W/m2 CLR
01:55 45.1 °F 40.9 °F 30.02 in Calm     85% 0.00 in WeatherDisplay:10.37 W/m2 CLR
02:00 44.9 °F 40.7 °F 30.02 in Calm     85% 0.00 in WeatherDisplay:10.37 W/m2 CLR
02:05 44.8 °F 40.6 °F 30.02 in Calm     85% 0.00 in WeatherDisplay:10.37 W/m2 CLR
02:10 44.7 °F 40.8 °F 30.02 in Calm     86% 0.00 in WeatherDisplay:10.37 W/m2 CLR
02:15 44.6 °F 40.7 °F 30.02 in Calm     86% 0.00 in WeatherDisplay:10.37 W/m2 CLR
02:20 44.5 °F 40.6 °F 30.02 in Calm     86% 0.00 in WeatherDisplay:10.37 W/m2 CLR
02:25 44.5 °F 40.6 °F 30.02 in Calm     86% 0.00 in WeatherDisplay:10.37 W/m2 CLR
02:30 44.4 °F 40.5 °F 30.02 in Calm     86% 0.00 in WeatherDisplay:10.37 W/m2 CLR
02:35 44.3 °F 40.7 °F 30.02 in Calm     87% 0.00 in WeatherDisplay:10.37 W/m2 CLR
02:40 44.2 °F 40.6 °F 30.02 in Calm     87% 0.00 in WeatherDisplay:10.37 W/m2 CLR
02:45 44.1 °F 40.5 °F 30.01 in Calm     87% 0.00 in WeatherDisplay:10.37 W/m2 CLR
02:50 44.1 °F 40.5 °F 30.01 in Calm     87% 0.00 in WeatherDisplay:10.37 W/m2 CLR
02:55 44.0 °F 40.4 °F 30.01 in Calm     87% 0.00 in WeatherDisplay:10.37 W/m2 CLR
03:00 43.9 °F 40.3 °F 30.01 in Calm     87% 0.00 in WeatherDisplay:10.37 W/m2 CLR
03:05 43.8 °F 40.2 °F 30.00 in Calm     87% 0.00 in WeatherDisplay:10.37 W/m2 FEW
03:10 43.7 °F 40.1 °F 30.00 in Calm     87% 0.00 in WeatherDisplay:10.37 W/m2 FEW
03:15 43.7 °F 40.1 °F 30.00 in Calm     87% 0.00 in WeatherDisplay:10.37 W/m2 FEW
03:20 43.7 °F 40.1 °F 30.00 in Calm     87% 0.00 in WeatherDisplay:10.37 W/m2 FEW
03:25 43.6 °F 40.0 °F 30.00 in Calm     87% 0.00 in WeatherDisplay:10.37 W/m2 FEW
03:30 43.6 °F 40.0 °F 30.00 in Calm     87% 0.00 in WeatherDisplay:10.37 W/m2 FEW
03:35 43.5 °F 39.9 °F 30.00 in Calm     87% 0.00 in WeatherDisplay:10.37 W/m2 FEW
03:40 43.5 °F 39.9 °F 30.00 in Calm   1.0 mph 87% 0.00 in WeatherDisplay:10.37 W/m2 FEW
03:45 43.6 °F 40.0 °F 30.00 in Calm     87% 0.00 in WeatherDisplay:10.37 W/m2 FEW
03:50 43.6 °F 40.0 °F 30.00 in Calm     87% 0.00 in WeatherDisplay:10.37 W/m2 FEW
03:55 43.6 °F 40.0 °F 30.00 in Calm     87% 0.00 in WeatherDisplay:10.37 W/m2 FEW
04:00 43.6 °F 40.0 °F 30.00 in Calm   1.0 mph 87% 0.00 in WeatherDisplay:10.37 W/m2 FEW
04:05 43.6 °F 40.0 °F 30.00 in Calm     87% 0.00 in WeatherDisplay:10.37 W/m2 CLR
04:10 43.6 °F 39.7 °F 30.00 in Calm     86% 0.00 in WeatherDisplay:10.37 W/m2 CLR
04:15 43.5 °F 39.9 °F 30.00 in Calm     87% 0.00 in WeatherDisplay:10.37 W/m2 CLR
04:20 43.4 °F 39.8 °F 30.00 in Calm     87% 0.00 in WeatherDisplay:10.37 W/m2 CLR
04:25 43.3 °F 39.7 °F 30.00 in Calm     87% 0.00 in WeatherDisplay:10.37 W/m2 CLR
04:30 43.2 °F 39.5 °F 30.00 in Calm     87% 0.00 in WeatherDisplay:10.37 W/m2 CLR
04:35 43.0 °F 39.4 °F 30.00 in Calm     87% 0.00 in WeatherDisplay:10.37 W/m2 CLR
04:40 42.8 °F 39.2 °F 30.00 in Calm     87% 0.00 in WeatherDisplay:10.37 W/m2 CLR
04:45 42.7 °F 39.1 °F 29.99 in Calm     87% 0.00 in WeatherDisplay:10.37 W/m2 CLR
04:50 42.6 °F 39.3 °F 29.99 in Calm     88% 0.00 in WeatherDisplay:10.37 W/m2 CLR
04:55 42.6 °F 39.3 °F 29.99 in Calm     88% 0.00 in WeatherDisplay:10.37 W/m2 CLR
05:00 42.5 °F 39.2 °F 29.99 in Calm     88% 0.00 in WeatherDisplay:10.37 W/m2 CLR
05:05 42.4 °F 39.1 °F 29.99 in Calm     88% 0.00 in WeatherDisplay:10.37 W/m2 CLR
05:09 42.3 °F 39.0 °F 29.99 in Calm     88% 0.00 in WeatherDisplay:10.37 W/m2 CLR
05:15 42.2 °F 38.9 °F 29.99 in Calm     88% 0.00 in WeatherDisplay:10.37 W/m2 CLR
05:20 42.1 °F 38.8 °F 29.99 in Calm     88% 0.00 in WeatherDisplay:10.37 W/m2 CLR
05:25 42.0 °F 38.7 °F 30.00 in Calm     88% 0.00 in WeatherDisplay:10.37 W/m2 CLR
05:30 41.9 °F 38.6 °F 29.99 in Calm     88% 0.00 in WeatherDisplay:10.37 W/m2 CLR
05:35 41.8 °F 38.5 °F 29.99 in Calm     88% 0.00 in WeatherDisplay:10.37 W/m2 CLR
05:40 41.7 °F 38.7 °F 29.99 in Calm     89% 0.00 in WeatherDisplay:10.37 W/m2 CLR
05:45 41.7 °F 38.7 °F 30.00 in Calm     89% 0.00 in WeatherDisplay:10.37 W/m2 CLR
05:50 41.7 °F 38.7 °F 30.00 in Calm     89% 0.00 in WeatherDisplay:10.37 W/m2 CLR
05:55 41.6 °F 38.6 °F 30.00 in Calm     89% 0.00 in WeatherDisplay:10.37 W/m2 CLR
06:00 41.6 °F 38.6 °F 30.00 in Calm     89% 0.00 in WeatherDisplay:10.37 W/m2 CLR
06:05 41.6 °F 38.6 °F 30.00 in Calm   1.0 mph 89% 0.00 in WeatherDisplay:10.37 W/m2 CLR
06:10 41.7 °F 38.7 °F 30.00 in Calm     89% 0.00 in WeatherDisplay:10.37 W/m2 CLR
06:15 41.7 °F 38.4 °F 30.00 in Calm     88% 0.00 in WeatherDisplay:10.37 W/m2 CLR
06:20 41.6 °F 38.3 °F 30.00 in Calm     88% 0.00 in WeatherDisplay:10.37 W/m2 CLR
06:25 41.6 °F 38.3 °F 30.00 in Calm     88% 0.00 in WeatherDisplay:10.37 W/m2 CLR
06:30 41.5 °F 38.2 °F 30.00 in Calm     88% 0.00 in WeatherDisplay:10.37 W/m2 CLR
06:35 41.4 °F 38.1 °F 30.01 in Calm     88% 0.00 in WeatherDisplay:10.37 W/m2 CLR
06:40 41.3 °F 38.3 °F 30.01 in Calm     89% 0.00 in WeatherDisplay:10.37 W/m2 CLR
06:45 41.2 °F 38.2 °F 30.01 in Calm     89% 0.00 in WeatherDisplay:10.37 W/m2 CLR
06:50 41.1 °F 38.1 °F 30.01 in Calm     89% 0.00 in WeatherDisplay:10.37 W/m2 CLR
06:55 41.1 °F 38.1 °F 30.00 in Calm     89% 0.00 in WeatherDisplay:10.37 W/m2 CLR
07:00 41.0 °F 38.0 °F 30.01 in Calm     89% 0.00 in WeatherDisplay:10.37 W/m2 CLR
07:05 40.9 °F 37.9 °F 30.01 in Calm     89% 0.00 in WeatherDisplay:10.37 W/m2 CLR
07:10 40.9 °F 37.9 °F 30.01 in Calm     89% 0.00 in WeatherDisplay:10.37 W/m2 CLR
07:15 40.8 °F 37.8 °F 30.01 in Calm     89% 0.00 in WeatherDisplay:10.37 W/m2 CLR
07:20 40.7 °F 37.7 °F 30.01 in Calm     89% 0.00 in WeatherDisplay:10.37 W/m2 CLR
07:25 40.6 °F 37.6 °F 30.00 in Calm     89% 0.00 in WeatherDisplay:10.37 W/m2 CLR
07:30 40.5 °F 37.5 °F 30.00 in Calm     89% 0.00 in WeatherDisplay:10.37 W/m2 CLR
07:35 40.5 °F 37.8 °F 30.00 in Calm     90% 0.00 in WeatherDisplay:10.37 W/m2 CLR
07:40 40.4 °F 37.7 °F 30.00 in Calm     90% 0.00 in WeatherDisplay:10.37 W/m2 CLR
07:45 40.3 °F 37.6 °F 30.00 in Calm     90% 0.00 in WeatherDisplay:10.37 W/m2 CLR
07:50 40.2 °F 37.5 °F 30.00 in Calm     90% 0.00 in WeatherDisplay:10.37 W/m2 CLR
07:55 40.1 °F 37.4 °F 30.00 in Calm     90% 0.00 in WeatherDisplay:10.37 W/m2 CLR
08:00 40.1 °F 37.4 °F 30.01 in Calm     90% 0.00 in WeatherDisplay:10.37 W/m2 CLR
08:05 40.1 °F 37.4 °F 30.01 in Calm     90% 0.00 in WeatherDisplay:10.37 W/m2 CLR
08:10 40.1 °F 37.4 °F 30.01 in Calm     90% 0.00 in WeatherDisplay:10.37 W/m2 CLR
08:15 40.2 °F 37.5 °F 30.01 in Calm     90% 0.00 in WeatherDisplay:10.37 W/m2 CLR
08:20 40.3 °F 37.9 °F 30.01 in Calm     91% 0.00 in WeatherDisplay:10.37 W/m2 CLR
08:25 40.4 °F 38.0 °F 30.01 in Calm     91% 0.00 in WeatherDisplay:10.37 W/m2 CLR
08:30 40.5 °F 38.1 °F 30.01 in Calm     91% 0.00 in WeatherDisplay:10.37 W/m2 CLR
08:35 40.7 °F 38.3 °F 30.01 in Calm     91% 0.00 in WeatherDisplay:10.37 W/m2 CLR
08:40 40.9 °F 38.5 °F 30.01 in Calm     91% 0.00 in WeatherDisplay:10.37 W/m2 CLR
08:45 41.2 °F 38.7 °F 30.02 in Calm     91% 0.00 in WeatherDisplay:10.37 W/m2 CLR
08:50 41.5 °F 39.3 °F 30.02 in Calm     92% 0.00 in WeatherDisplay:10.37 W/m2 CLR
08:55 41.8 °F 39.4 °F 30.02 in Calm     91% 0.00 in WeatherDisplay:10.37 W/m2 CLR
09:00 42.1 °F 39.7 °F 30.03 in Calm     91% 0.00 in WeatherDisplay:10.37 W/m2 CLR
09:05 42.7 °F 40.0 °F 30.02 in Calm     90% 0.00 in WeatherDisplay:10.37 W/m2 FEW
09:10 43.2 °F 40.2 °F 30.03 in Calm     89% 0.00 in WeatherDisplay:10.37 W/m2 FEW
09:15 43.7 °F 40.1 °F 30.03 in Calm     87% 0.00 in WeatherDisplay:10.37 W/m2 FEW
09:20 44.1 °F 40.2 °F 30.03 in Calm   1.0 mph 86% 0.00 in WeatherDisplay:10.37 W/m2 FEW
09:25 44.6 °F 40.1 °F 30.03 in Calm   1.0 mph 84% 0.00 in WeatherDisplay:10.37 W/m2 FEW
09:30 45.0 °F 40.1 °F 30.03 in Calm   1.0 mph 83% 0.00 in WeatherDisplay:10.37 W/m2 FEW
09:35 45.4 °F 40.5 °F 30.03 in Calm   2.0 mph 83% 0.00 in WeatherDisplay:10.37 W/m2 FEW
09:40 45.7 °F 40.5 °F 30.03 in Calm     82% 0.00 in WeatherDisplay:10.37 W/m2 FEW
09:45 46.0 °F 40.5 °F 30.02 in Calm   2.0 mph 81% 0.00 in WeatherDisplay:10.37 W/m2 FEW
09:50 46.2 °F 40.4 °F 30.02 in Calm   2.0 mph 80% 0.00 in WeatherDisplay:10.37 W/m2 FEW
09:55 46.5 °F 40.7 °F 30.03 in Calm   1.0 mph 80% 0.00 in WeatherDisplay:10.37 W/m2 FEW
10:00 47.0 °F 40.8 °F 30.03 in WSW 1.2 mph 1.2 mph 79% 0.00 in WeatherDisplay:10.37 W/m2 FEW
10:05 47.3 °F 40.4 °F 30.03 in Calm   2.0 mph 77% 0.00 in WeatherDisplay:10.37 W/m2 FEW
10:10 47.5 °F 41.0 °F 30.03 in Calm   3.0 mph 78% 0.00 in WeatherDisplay:10.37 W/m2 FEW
10:15 47.9 °F 41.3 °F 30.03 in Calm   1.0 mph 78% 0.00 in WeatherDisplay:10.37 W/m2 FEW
10:20 48.4 °F 41.5 °F 30.03 in NW 1.2 mph 1.2 mph 77% 0.00 in WeatherDisplay:10.37 W/m2 FEW
10:25 48.6 °F 41.4 °F 30.03 in Calm   1.0 mph 76% 0.00 in WeatherDisplay:10.37 W/m2 FEW
10:30 48.9 °F 41.0 °F 30.03 in Calm   3.0 mph 74% 0.00 in WeatherDisplay:10.37 W/m2 FEW
10:31 49.0 °F 41.1 °F 30.03 in SW 3.5 mph 3.5 mph 74% 0.00 in WeatherDisplay:10.37 W/m2 FEW
10:36 49.2 °F 40.9 °F 30.03 in SSE 2.3 mph 2.3 mph 73% 0.00 in WeatherDisplay:10.37 W/m2 FEW
10:41 49.8 °F 41.8 °F 30.03 in WSW 1.2 mph 1.2 mph 74% 0.00 in WeatherDisplay:10.37 W/m2 FEW
10:46 50.6 °F 41.5 °F 30.04 in NNW 1.2 mph 1.2 mph 71% 0.00 in WeatherDisplay:10.37 W/m2 FEW
10:51 51.3 °F 41.5 °F 30.04 in NNW 2.3 mph 2.3 mph 69% 0.00 in WeatherDisplay:10.37 W/m2 FEW
10:56 51.7 °F 41.5 °F 30.03 in West 1.2 mph 1.2 mph 68% 0.00 in WeatherDisplay:10.37 W/m2 FEW
11:01 52.6 °F 42.3 °F 30.03 in NNW 2.0 mph 2.0 mph 68% 0.00 in WeatherDisplay:10.37 W/m2 FEW
11:06 53.2 °F 40.9 °F 30.03 in NW 1.2 mph   63% 0.00 in WeatherDisplay:10.37 W/m2 FEW
11:12 53.7 °F 40.6 °F 30.03 in WNW 1.2 mph 1.6 mph 61% 0.00 in WeatherDisplay:10.37 W/m2 FEW
11:17 53.7 °F 39.7 °F 30.03 in SW 4.6 mph 4.6 mph 59% 0.00 in WeatherDisplay:10.37 W/m2 FEW
11:22 53.9 °F 40.8 °F 30.03 in SSW 2.3 mph 2.3 mph 61% 0.00 in WeatherDisplay:10.37 W/m2 FEW
11:27 54.3 °F 41.1 °F 30.03 in WSW 3.5 mph 3.5 mph 61% 0.00 in WeatherDisplay:10.37 W/m2 FEW
11:32 54.4 °F 40.8 °F 30.03 in North 2.3 mph 2.3 mph 60% 0.00 in WeatherDisplay:10.37 W/m2 FEW
11:37 54.5 °F 40.0 °F 30.02 in West 1.2 mph 1.2 mph 58% 0.00 in WeatherDisplay:10.37 W/m2 FEW
11:42 55.1 °F 41.5 °F 30.02 in WSW 1.2 mph 1.2 mph 60% 0.00 in WeatherDisplay:10.37 W/m2 FEW
11:47 55.1 °F 40.6 °F 30.02 in North 2.3 mph 2.3 mph 58% 0.00 in WeatherDisplay:10.37 W/m2 FEW
11:52 54.9 °F 39.5 °F 30.02 in NNW 3.5 mph 3.5 mph 56% 0.00 in WeatherDisplay:10.37 W/m2 FEW
11:58 55.0 °F 40.9 °F 30.02 in WNW 1.2 mph 1.4 mph 59% 0.00 in WeatherDisplay:10.37 W/m2 FEW
12:03 55.1 °F 39.7 °F 30.01 in West 2.3 mph 2.3 mph 56% 0.00 in WeatherDisplay:10.37 W/m2 SCT
12:08 54.9 °F 39.5 °F 30.01 in NNW 1.2 mph 1.2 mph 56% 0.00 in WeatherDisplay:10.37 W/m2 SCT
12:13 54.8 °F 39.4 °F 30.01 in West 1.2 mph 1.2 mph 56% 0.00 in WeatherDisplay:10.37 W/m2 SCT
12:18 54.8 °F 38.9 °F 30.01 in SW 2.0 mph 2.0 mph 55% 0.00 in WeatherDisplay:10.37 W/m2 SCT
12:23 54.7 °F 39.3 °F 30.01 in NW 2.3 mph 2.3 mph 56% 0.00 in WeatherDisplay:10.37 W/m2 SCT
12:28 54.8 °F 39.4 °F 30.01 in WSW 4.6 mph 4.6 mph 56% 0.00 in WeatherDisplay:10.37 W/m2 SCT
12:33 54.9 °F 38.1 °F 30.01 in NNW 4.6 mph 4.6 mph 53% 0.00 in WeatherDisplay:10.37 W/m2 SCT
12:38 54.9 °F 39.0 °F 30.01 in NW 2.3 mph 2.3 mph 55% 0.00 in WeatherDisplay:10.37 W/m2 SCT
12:44 55.1 °F 39.7 °F 30.00 in WNW 3.5 mph 3.5 mph 56% 0.00 in WeatherDisplay:10.37 W/m2 SCT
12:49 55.4 °F 39.5 °F 30.00 in NW 2.3 mph 2.3 mph 55% 0.00 in WeatherDisplay:10.37 W/m2 SCT
12:54 55.4 °F 40.0 °F 30.00 in NW 2.3 mph 2.3 mph 56% 0.00 in WeatherDisplay:10.37 W/m2 SCT
12:59 55.8 °F 39.4 °F 30.00 in North 1.2 mph 1.2 mph 54% 0.00 in WeatherDisplay:10.37 W/m2 SCT
13:04 55.9 °F 40.4 °F 30.00 in WNW 1.2 mph 1.2 mph 56% 0.00 in WeatherDisplay:10.37 W/m2 SCT
13:09 56.3 °F 38.9 °F 29.99 in West 2.0 mph 2.0 mph 52% 0.00 in WeatherDisplay:10.37 W/m2 SCT
13:14 56.5 °F 39.1 °F 29.99 in SSW 5.1 mph 5.1 mph 52% 0.00 in WeatherDisplay:10.37 W/m2 SCT
13:19 56.2 °F 38.3 °F 29.98 in WNW 1.0 mph 1.0 mph 51% 0.00 in WeatherDisplay:10.37 W/m2 SCT
13:24 56.4 °F 38.0 °F 29.98 in SSW 1.2 mph 1.2 mph 50% 0.00 in WeatherDisplay:10.37 W/m2 SCT
13:30 56.2 °F 38.8 °F 29.98 in Calm   5.0 mph 52% 0.00 in WeatherDisplay:10.37 W/m2 SCT
13:35 56.5 °F 38.1 °F 29.97 in Calm   3.0 mph 50% 0.00 in WeatherDisplay:10.37 W/m2 SCT
13:40 56.6 °F 37.1 °F 29.97 in Calm   2.0 mph 48% 0.00 in WeatherDisplay:10.37 W/m2 SCT
13:45 56.6 °F 37.1 °F 29.97 in WSW 2.0 mph 5.0 mph 48% 0.00 in WeatherDisplay:10.37 W/m2 SCT
13:50 57.1 °F 39.6 °F 29.96 in Calm   2.0 mph 52% 0.00 in WeatherDisplay:10.37 W/m2 SCT
13:55 58.0 °F 39.4 °F 29.96 in Calm   2.0 mph 50% 0.00 in WeatherDisplay:10.37 W/m2 SCT
14:00 58.6 °F 39.0 °F 29.96 in WNW 1.0 mph 5.0 mph 48% 0.00 in WeatherDisplay:10.37 W/m2 SCT
14:05 58.6 °F 37.9 °F 29.96 in West 4.6 mph 4.6 mph 46% 0.00 in WeatherDisplay:10.37 W/m2 SCT
14:10 58.9 °F 38.7 °F 29.96 in Calm   2.0 mph 47% 0.00 in WeatherDisplay:10.37 W/m2 SCT
14:15 59.5 °F 38.7 °F 29.95 in WNW 1.0 mph 5.0 mph 46% 0.00 in WeatherDisplay:10.37 W/m2 SCT
14:20 60.0 °F 39.7 °F 29.95 in WNW 1.0 mph 2.0 mph 47% 0.00 in WeatherDisplay:10.37 W/m2 SCT
14:25 59.9 °F 39.1 °F 29.95 in West 1.0 mph 3.0 mph 46% 0.00 in WeatherDisplay:10.37 W/m2 SCT
14:30 59.7 °F 38.9 °F 29.94 in NW 2.3 mph 2.3 mph 46% 0.00 in WeatherDisplay:10.37 W/m2 SCT
14:35 59.5 °F 39.2 °F 29.94 in WNW 2.3 mph 2.3 mph 47% 0.00 in WeatherDisplay:10.37 W/m2 SCT
14:40 59.5 °F 38.1 °F 29.94 in WNW 1.2 mph 1.2 mph 45% 0.00 in WeatherDisplay:10.37 W/m2 SCT
14:45 59.2 °F 37.9 °F 29.94 in Calm   3.0 mph 45% 0.00 in WeatherDisplay:10.37 W/m2 SCT
14:50 59.0 °F 37.7 °F 29.94 in West 1.0 mph 6.0 mph 45% 0.00 in WeatherDisplay:10.37 W/m2 SCT
14:55 59.0 °F 39.3 °F 29.93 in NNE 3.1 mph 3.1 mph 48% 0.00 in WeatherDisplay:10.37 W/m2 SCT
15:00 58.9 °F 38.1 °F 29.93 in Calm   3.0 mph 46% 0.00 in WeatherDisplay:10.37 W/m2 SCT
15:05 58.8 °F 39.1 °F 29.93 in WNW 1.0 mph 5.0 mph 48% 0.00 in WeatherDisplay:10.37 W/m2 SCT
15:10 58.2 °F 37.5 °F 29.93 in SSW 2.0 mph 2.0 mph 46% 0.00 in WeatherDisplay:10.37 W/m2 SCT
15:15 58.0 °F 37.4 °F 29.94 in SW 1.0 mph 3.0 mph 46% 0.00 in WeatherDisplay:10.37 W/m2 SCT
15:20 57.9 °F 37.2 °F 29.94 in West 1.0 mph 6.0 mph 46% 0.00 in WeatherDisplay:10.37 W/m2 SCT
15:25 57.6 °F 37.5 °F 29.93 in Calm   5.0 mph 47% 0.00 in WeatherDisplay:10.37 W/m2 SCT
15:30 57.7 °F 37.0 °F 29.93 in West 2.3 mph 2.3 mph 46% 0.00 in WeatherDisplay:10.37 W/m2 SCT
15:35 57.8 °F 37.7 °F 29.93 in Calm   1.0 mph 47% 0.00 in WeatherDisplay:10.37 W/m2 SCT
15:40 57.8 °F 38.2 °F 29.93 in Calm   1.0 mph 48% 0.00 in WeatherDisplay:10.37 W/m2 SCT
15:45 57.5 °F 36.9 °F 29.93 in WNW 1.0 mph 5.0 mph 46% 0.00 in WeatherDisplay:10.37 W/m2 SCT
15:50 57.5 °F 36.8 °F 29.93 in Calm   2.0 mph 46% 0.00 in WeatherDisplay:10.37 W/m2 SCT
15:55 57.4 °F 37.3 °F 29.93 in Calm   2.0 mph 47% 0.00 in WeatherDisplay:10.37 W/m2 SCT
16:00 57.2 °F 37.1 °F 29.93 in West 1.0 mph 3.0 mph 47% 0.00 in WeatherDisplay:10.37 W/m2 SCT
16:05 56.7 °F 36.2 °F 29.93 in WNW 1.0 mph 3.0 mph 46% 0.00 in WeatherDisplay:10.37 W/m2 FEW
16:10 56.4 °F 36.9 °F 29.93 in Calm   2.0 mph 48% 0.00 in WeatherDisplay:10.37 W/m2 FEW
16:15 56.4 °F 36.9 °F 29.93 in Calm   5.0 mph 48% 0.00 in WeatherDisplay:10.37 W/m2 FEW
16:20 56.5 °F 37.0 °F 29.92 in Calm   3.0 mph 48% 0.00 in WeatherDisplay:10.37 W/m2 FEW
16:21 56.5 °F 37.0 °F 29.92 in WNW 1.2 mph 1.2 mph 48% 0.00 in WeatherDisplay:10.37 W/m2 FEW
16:26 56.5 °F 36.5 °F 29.92 in ESE 2.3 mph 2.3 mph 47% 0.00 in WeatherDisplay:10.37 W/m2 FEW
16:31 56.5 °F 36.5 °F 29.92 in WNW 2.3 mph 2.3 mph 47% 0.00 in WeatherDisplay:10.37 W/m2 FEW
16:36 56.6 °F 38.2 °F 29.92 in SSW 2.0 mph 2.0 mph 50% 0.00 in WeatherDisplay:10.37 W/m2 FEW
16:41 56.5 °F 37.0 °F 29.92 in WNW 1.2 mph 1.2 mph 48% 0.00 in WeatherDisplay:10.37 W/m2 FEW
16:46 56.5 °F 36.5 °F 29.92 in WNW 1.0 mph 1.0 mph 47% 0.00 in WeatherDisplay:10.37 W/m2 FEW
16:51 56.5 °F 37.0 °F 29.92 in West 1.2 mph 1.2 mph 48% 0.00 in WeatherDisplay:10.37 W/m2 FEW
16:57 56.4 °F 36.4 °F 29.92 in NW 2.3 mph 2.3 mph 47% 0.00 in WeatherDisplay:10.37 W/m2 FEW
17:02 56.3 °F 35.8 °F 29.92 in NW 2.3 mph 2.3 mph 46% 0.00 in WeatherDisplay:10.37 W/m2 FEW
17:07 56.1 °F 36.7 °F 29.92 in Calm     48% 0.00 in WeatherDisplay:10.37 W/m2 FEW
17:12 56.0 °F 37.1 °F 29.92 in West 1.2 mph 1.2 mph 49% 0.00 in WeatherDisplay:10.37 W/m2 FEW
17:17 55.8 °F 35.9 °F 29.92 in NNW 3.5 mph 3.5 mph 47% 0.00 in WeatherDisplay:10.37 W/m2 FEW
17:22 55.7 °F 35.8 °F 29.92 in WNW 2.3 mph 2.3 mph 47% 0.00 in WeatherDisplay:10.37 W/m2 FEW
17:27 55.4 °F 35.5 °F 29.92 in SW 4.1 mph 4.1 mph 47% 0.00 in WeatherDisplay:10.37 W/m2 FEW
17:32 55.2 °F 36.4 °F 29.92 in West 2.3 mph 2.3 mph 49% 0.00 in WeatherDisplay:10.37 W/m2 FEW
17:37 55.1 °F 35.7 °F 29.92 in West 1.2 mph 1.2 mph 48% 0.00 in WeatherDisplay:10.37 W/m2 FEW
17:43 54.9 °F 36.1 °F 29.92 in WNW 1.2 mph 1.2 mph 49% 0.00 in WeatherDisplay:10.37 W/m2 FEW
17:48 54.7 °F 35.9 °F 29.93 in West 1.2 mph   49% 0.00 in WeatherDisplay:10.37 W/m2 FEW
17:53 54.5 °F 34.7 °F 29.92 in West 1.2 mph 1.2 mph 47% 0.00 in WeatherDisplay:10.37 W/m2 FEW
17:58 54.5 °F 34.7 °F 29.93 in Calm     47% 0.00 in WeatherDisplay:10.37 W/m2 FEW
18:03 54.3 °F 35.0 °F 29.93 in NW 1.2 mph 1.2 mph 48% 0.00 in WeatherDisplay:10.37 W/m2 FEW
18:08 54.1 °F 34.3 °F 29.93 in NW 1.2 mph 1.2 mph 47% 0.00 in WeatherDisplay:10.37 W/m2 FEW
18:13 53.8 °F 35.6 °F 29.93 in WSW 2.0 mph 2.0 mph 50% 0.00 in WeatherDisplay:10.37 W/m2 FEW
18:18 53.4 °F 33.7 °F 29.93 in WNW 1.2 mph 1.2 mph 47% 0.00 in WeatherDisplay:10.37 W/m2 FEW
18:23 53.3 °F 33.0 °F 29.93 in NW 2.3 mph 2.3 mph 46% 0.00 in WeatherDisplay:10.37 W/m2 FEW
18:28 53.3 °F 33.0 °F 29.94 in WNW 1.2 mph 1.2 mph 46% 0.00 in WeatherDisplay:10.37 W/m2 FEW
18:33 53.1 °F 34.9 °F 29.94 in West 1.0 mph   50% 0.00 in WeatherDisplay:10.37 W/m2 FEW
18:38 52.6 °F 34.0 °F 29.94 in Calm     49% 0.00 in WeatherDisplay:10.37 W/m2 FEW
18:43 52.4 °F 35.3 °F 29.94 in Calm     52% 0.00 in WeatherDisplay:10.37 W/m2 FEW
18:48 52.1 °F 35.5 °F 29.95 in Calm     53% 0.00 in WeatherDisplay:10.37 W/m2 FEW
18:54 51.7 °F 36.0 °F 29.95 in Calm     55% 0.00 in WeatherDisplay:10.37 W/m2 FEW
18:59 51.2 °F 36.0 °F 29.94 in Calm     56% 0.00 in WeatherDisplay:10.37 W/m2 FEW
19:04 50.8 °F 36.5 °F 29.94 in Calm     58% 0.00 in WeatherDisplay:10.37 W/m2 FEW
19:09 50.4 °F 37.0 °F 29.94 in Calm     60% 0.00 in WeatherDisplay:10.37 W/m2 FEW
19:14 50.0 °F 36.7 °F 29.94 in Calm     60% 0.00 in WeatherDisplay:10.37 W/m2 FEW
19:19 49.6 °F 37.1 °F 29.94 in Calm     62% 0.00 in WeatherDisplay:10.37 W/m2 FEW
19:24 49.2 °F 36.3 °F 29.94 in Calm     61% 0.00 in WeatherDisplay:10.37 W/m2 FEW
19:29 48.9 °F 36.9 °F 29.94 in Calm     63% 0.00 in WeatherDisplay:10.37 W/m2 FEW
19:34 48.5 °F 37.3 °F 29.95 in Calm     65% 0.00 in WeatherDisplay:10.37 W/m2 FEW
19:39 48.3 °F 37.5 °F 29.95 in Calm     66% 0.00 in WeatherDisplay:10.37 W/m2 FEW
19:44 48.0 °F 37.6 °F 29.95 in Calm     67% 0.00 in WeatherDisplay:10.37 W/m2 FEW
19:50 47.7 °F 37.6 °F 29.95 in Calm     68% 0.00 in WeatherDisplay:10.37 W/m2 FEW
19:55 47.4 °F 37.7 °F 29.95 in Calm     69% 0.00 in WeatherDisplay:10.37 W/m2 FEW
20:00 47.2 °F 37.9 °F 29.95 in Calm     70% 0.00 in WeatherDisplay:10.37 W/m2 FEW
20:05 47.0 °F 37.4 °F 29.96 in Calm     69% 0.00 in WeatherDisplay:10.37 W/m2 CLR
20:10 46.8 °F 37.5 °F 29.96 in Calm     70% 0.00 in WeatherDisplay:10.37 W/m2 CLR
20:15 46.6 °F 37.3 °F 29.96 in Calm     70% 0.00 in WeatherDisplay:10.37 W/m2 CLR
20:20 46.4 °F 37.2 °F 29.96 in Calm     70% 0.00 in WeatherDisplay:10.37 W/m2 CLR
20:25 46.3 °F 37.4 °F 29.96 in Calm     71% 0.00 in WeatherDisplay:10.37 W/m2 CLR
20:30 46.1 °F 37.9 °F 29.96 in Calm     73% 0.00 in WeatherDisplay:10.37 W/m2 CLR
20:35 45.9 °F 37.8 °F 29.96 in Calm     73% 0.00 in WeatherDisplay:10.37 W/m2 CLR
20:40 45.8 °F 37.7 °F 29.96 in Calm     73% 0.00 in WeatherDisplay:10.37 W/m2 CLR
20:45 45.7 °F 37.5 °F 29.96 in Calm     73% 0.00 in WeatherDisplay:10.37 W/m2 CLR
20:50 45.6 °F 37.1 °F 29.96 in Calm     72% 0.00 in WeatherDisplay:10.37 W/m2 CLR
20:55 45.5 °F 37.3 °F 29.97 in Calm     73% 0.00 in WeatherDisplay:10.37 W/m2 CLR
21:00 45.4 °F 37.2 °F 29.97 in Calm     73% 0.00 in WeatherDisplay:10.37 W/m2 CLR
21:05 45.3 °F 37.1 °F 29.96 in Calm     73% 0.00 in WeatherDisplay:10.37 W/m2 FEW
21:10 45.1 °F 37.3 °F 29.96 in Calm     74% 0.00 in WeatherDisplay:10.37 W/m2 FEW
21:15 45.0 °F 37.6 °F 29.97 in Calm     75% 0.00 in WeatherDisplay:10.37 W/m2 FEW
21:20 44.9 °F 37.8 °F 29.97 in Calm     76% 0.00 in WeatherDisplay:10.37 W/m2 FEW
21:25 44.7 °F 37.9 °F 29.96 in Calm     77% 0.00 in WeatherDisplay:10.37 W/m2 FEW
21:30 44.6 °F 37.5 °F 29.96 in Calm     76% 0.00 in WeatherDisplay:10.37 W/m2 FEW
21:35 44.4 °F 37.3 °F 29.96 in Calm     76% 0.00 in WeatherDisplay:10.37 W/m2 FEW
21:40 44.3 °F 37.2 °F 29.97 in Calm     76% 0.00 in WeatherDisplay:10.37 W/m2 FEW
21:45 44.2 °F 37.4 °F 29.97 in Calm     77% 0.00 in WeatherDisplay:10.37 W/m2 FEW
21:50 44.1 °F 37.3 °F 29.98 in Calm     77% 0.00 in WeatherDisplay:10.37 W/m2 FEW
21:55 44.0 °F 37.3 °F 29.98 in Calm     77% 0.00 in WeatherDisplay:10.37 W/m2 FEW
22:00 43.7 °F 37.0 °F 29.98 in Calm     77% 0.00 in WeatherDisplay:10.37 W/m2 FEW
22:05 43.6 °F 36.9 °F 29.98 in Calm     77% 0.00 in WeatherDisplay:10.37 W/m2 CLR
22:10 43.5 °F 37.1 °F 29.98 in Calm     78% 0.00 in WeatherDisplay:10.37 W/m2 CLR
22:16 43.4 °F 37.0 °F 29.98 in Calm     78% 0.00 in WeatherDisplay:10.37 W/m2 CLR
22:21 43.2 °F 36.8 °F 29.98 in Calm     78% 0.00 in WeatherDisplay:10.37 W/m2 CLR
22:26 43.1 °F 36.4 °F 29.98 in Calm     77% 0.00 in WeatherDisplay:10.37 W/m2 CLR
22:31 42.9 °F 36.5 °F 29.98 in Calm     78% 0.00 in WeatherDisplay:10.37 W/m2 CLR
22:36 42.8 °F 36.4 °F 29.99 in Calm     78% 0.00 in WeatherDisplay:10.37 W/m2 CLR
22:41 42.7 °F 36.3 °F 29.99 in Calm     78% 0.00 in WeatherDisplay:10.37 W/m2 CLR
22:46 42.6 °F 36.5 °F 29.99 in Calm     79% 0.00 in WeatherDisplay:10.37 W/m2 CLR
22:51 42.5 °F 36.4 °F 29.99 in Calm     79% 0.00 in WeatherDisplay:10.37 W/m2 CLR
22:56 42.4 °F 36.7 °F 29.99 in Calm     80% 0.00 in WeatherDisplay:10.37 W/m2 CLR
23:02 42.3 °F 36.3 °F 30.00 in Calm     79% 0.00 in WeatherDisplay:10.37 W/m2 CLR
23:07 42.1 °F 36.1 °F 30.00 in Calm     79% 0.00 in WeatherDisplay:10.37 W/m2 CLR
23:12 42.0 °F 36.3 °F 30.00 in Calm     80% 0.00 in WeatherDisplay:10.37 W/m2 CLR
23:17 41.9 °F 36.5 °F 30.00 in Calm     81% 0.00 in WeatherDisplay:10.37 W/m2 CLR
23:22 41.8 °F 36.4 °F 30.00 in Calm     81% 0.00 in WeatherDisplay:10.37 W/m2 CLR
23:27 41.8 °F 36.7 °F 30.00 in Calm     82% 0.00 in WeatherDisplay:10.37 W/m2 CLR
23:32 41.7 °F 36.6 °F 30.00 in Calm     82% 0.00 in WeatherDisplay:10.37 W/m2 CLR
23:37 41.7 °F 36.6 °F 30.00 in Calm     82% 0.00 in WeatherDisplay:10.37 W/m2 CLR
23:43 41.6 °F 36.8 °F 30.00 in Calm     83% 0.00 in WeatherDisplay:10.37 W/m2 CLR
23:48 41.5 °F 36.7 °F 30.00 in Calm     83% 0.00 in WeatherDisplay:10.37 W/m2 CLR
23:53 41.5 °F 36.7 °F 30.00 in Calm     83% 0.00 in WeatherDisplay:10.37 W/m2 CLR
23:58 41.4 °F 36.6 °F 30.00 in Calm     83% 0.00 in WeatherDisplay:10.37 W/m2 CLR
Piedmont Bend
Compliments of Weather Underground - 4 mb